�N����,�����b,�ŏ������i�x�j,���ϕ����i�x�j,�ő啗���i�x�j,�ŏ�����(m/s),���ϕ���(m/s),�ő啗��(m/s),�C��(���j,���x�i���j,�C��(hPa),�~�J��(mm),�~�J����(�b�j,�~�J���x(mm/h),�ő�~�J���x(mm/h),�~�Ђ傤��(hit/���u),�~�Ђ傤����(�b�j,�~�Ђ傤���x(hit/���uh),�ő�~�Ђ傤���x(hit/���uh),�q�[�^���x(���j,�q�[�^�[�d���iV),�d���d���iV),�Q�Ɠd���iV)
2013/06/01,00:00:01,212,231,257,1.9,2.4,3.0,25.0,92.4,1001.4,0.00,0,0.0,////,0.0,0,0.0,////,24.3,0.0,12.3,3.521
2013/06/01,00:10:01,214,222,233,2.3,2.5,2.6,25.0,92.3,1001.2,0.00,0,0.0,////,0.0,0,0.0,////,24.1,0.0,12.3,3.521
2013/06/01,00:20:01,231,235,240,2.2,2.4,2.6,25.0,92.5,1001.0,0.00,0,0.0,////,0.0,0,0.0,////,24.1,0.0,12.3,3.521
2013/06/01,00:30:01,229,234,242,2.8,3.1,3.3,25.0,92.5,1000.8,0.00,0,0.0,////,0.0,0,0.0,////,24.1,0.0,12.3,3.521
2013/06/01,00:40:01,232,243,250,2.0,2.3,2.6,24.9,92.6,1000.7,0.00,0,0.0,////,0.0,0,0.0,////,23.9,0.0,12.3,3.521
2013/06/01,00:50:01,233,235,239,3.9,4.2,4.7,25.0,92.7,1000.8,0.00,0,0.0,////,0.0,0,0.0,////,24.1,0.0,12.3,3.521
2013/06/01,01:00:01,212,234,256,1.5,1.8,2.0,25.0,92.8,1000.7,0.00,0,0.0,////,0.0,0,0.0,////,24.1,0.0,12.3,3.523
2013/06/01,01:10:01,231,237,245,2.4,2.9,3.5,25.0,92.8,1000.6,0.00,0,0.0,////,0.0,0,0.0,////,24.1,0.0,12.3,3.523
2013/06/01,01:20:01,259,264,266,2.2,2.5,2.8,25.0,92.8,1000.6,0.00,0,0.0,////,0.0,0,0.0,////,24.1,0.0,12.3,3.521
2013/06/01,01:30:01,234,243,253,2.9,3.3,3.7,24.9,92.8,1000.6,0.00,0,0.0,////,0.0,0,0.0,////,24.1,0.0,12.3,3.521
2013/06/01,01:40:01,259,263,270,3.4,4.3,5.1,24.9,92.9,1000.5,0.00,0,0.0,////,0.0,0,0.0,////,23.9,0.0,12.3,3.523
2013/06/01,01:50:01,220,229,243,2.5,3.0,3.4,24.9,93.0,1000.4,0.00,0,0.0,////,0.0,0,0.0,////,23.9,0.0,12.3,3.521
2013/06/01,02:00:01,228,233,240,2.9,3.1,3.3,24.9,93.2,1000.4,0.00,0,0.0,////,0.0,0,0.0,////,23.7,0.0,12.3,3.521
2013/06/01,02:10:01,225,249,262,2.8,3.0,3.1,24.9,93.4,1000.4,0.00,0,0.0,////,0.0,0,0.0,////,23.9,0.0,12.3,3.520
2013/06/01,02:20:01,241,252,263,1.5,2.0,2.4,24.9,93.6,1000.3,0.00,0,0.0,////,0.0,0,0.0,////,23.9,0.0,12.3,3.523
2013/06/01,02:30:01,244,263,274,1.8,2.0,2.1,24.9,93.6,1000.3,0.00,0,0.0,////,0.0,0,0.0,////,24.1,0.0,12.3,3.521
2013/06/01,02:40:01,249,259,279,2.8,3.0,3.3,24.9,93.7,1000.3,0.00,0,0.0,////,0.0,0,0.0,////,24.1,0.0,12.3,3.521
2013/06/01,02:50:01,230,241,247,2.3,2.5,3.0,24.9,93.7,1000.2,0.00,0,0.0,////,0.0,0,0.0,////,23.9,0.0,12.3,3.520
2013/06/01,03:00:01,227,236,243,3.3,3.4,3.7,24.9,93.8,1000.1,0.00,0,0.0,////,0.0,0,0.0,////,23.9,0.0,12.3,3.521
2013/06/01,03:10:01,223,234,242,2.0,2.8,3.9,24.8,93.8,1000.2,0.00,0,0.0,////,0.0,0,0.0,////,23.9,0.0,12.3,3.521
2013/06/01,03:20:01,236,246,258,2.2,3.2,4.5,24.8,93.9,1000.2,0.00,0,0.0,////,0.0,0,0.0,////,23.7,0.0,12.3,3.521
2013/06/01,03:30:01,252,268,280,1.6,1.8,2.3,24.8,93.9,1000.1,0.00,0,0.0,////,0.0,0,0.0,////,23.7,0.0,12.3,3.521
2013/06/01,03:40:01,211,227,237,1.9,2.4,2.8,24.8,94.0,1000.1,0.00,0,0.0,////,0.0,0,0.0,////,23.7,0.0,12.3,3.521
2013/06/01,03:50:01,221,223,226,2.7,2.8,3.1,24.8,94.0,1000.2,0.00,0,0.0,////,0.0,0,0.0,////,23.9,0.0,12.3,3.523
2013/06/01,04:00:01,230,233,235,2.5,2.6,2.8,24.8,94.1,1000.2,0.00,0,0.0,////,0.0,0,0.0,////,23.6,0.0,12.3,3.521
2013/06/01,04:10:01,212,217,220,2.7,3.2,3.7,24.8,94.1,1000.2,0.00,0,0.0,////,0.0,0,0.0,////,23.7,0.0,12.3,3.523
2013/06/01,04:20:01,237,248,264,2.0,2.3,2.6,24.8,94.2,1000.3,0.00,0,0.0,////,0.0,0,0.0,////,23.9,0.0,12.3,3.521
2013/06/01,04:30:01,230,236,245,1.9,2.1,2.2,24.8,94.3,1000.4,0.00,0,0.0,////,0.0,0,0.0,////,23.7,0.0,12.3,3.520
2013/06/01,04:40:01,226,236,247,2.1,2.5,2.8,24.9,94.3,1000.5,0.00,0,0.0,////,0.0,0,0.0,////,23.9,0.0,12.3,3.521
2013/06/01,04:50:01,235,240,246,3.9,4.2,4.4,24.8,94.3,1000.5,0.00,0,0.0,////,0.0,0,0.0,////,23.9,0.0,12.3,3.521
2013/06/01,05:00:01,211,224,246,1.8,2.0,2.4,24.8,94.3,1000.6,0.00,0,0.0,////,0.0,0,0.0,////,23.9,0.0,12.3,3.523
2013/06/01,05:10:01,220,228,237,3.5,3.7,3.9,24.8,94.4,1000.6,0.00,0,0.0,////,0.0,0,0.0,////,23.9,0.0,12.3,3.521
2013/06/01,05:20:01,221,228,237,1.4,1.7,1.9,24.8,94.4,1000.6,0.00,0,0.0,////,0.0,0,0.0,////,23.9,0.0,12.3,3.521
2013/06/01,05:30:01,233,235,237,3.3,3.5,3.7,24.7,94.4,1000.6,0.00,0,0.0,////,0.0,0,0.0,////,23.7,0.0,12.3,3.520
2013/06/01,05:40:01,229,233,235,1.3,1.7,2.0,24.7,94.4,1000.6,0.00,0,0.0,////,0.0,0,0.0,////,23.6,0.0,12.3,3.519
2013/06/01,05:50:01,221,233,240,2.7,2.8,2.9,24.8,94.5,1000.7,0.00,0,0.0,////,0.0,0,0.0,////,23.9,0.0,12.3,3.521
2013/06/01,06:00:01,240,243,245,1.9,2.2,2.6,24.8,94.5,1000.7,0.00,0,0.0,////,0.0,0,0.0,////,23.9,0.0,12.2,3.521
2013/06/01,06:10:01,239,241,243,2.3,2.4,2.5,24.8,94.6,1000.7,0.00,0,0.0,////,0.0,0,0.0,////,23.9,0.0,12.3,3.523
2013/06/01,06:20:01,212,224,231,1.2,2.0,2.7,24.8,94.6,1000.7,0.00,0,0.0,////,0.0,0,0.0,////,24.1,0.0,12.3,3.521
2013/06/01,06:30:01,220,224,227,2.4,2.5,2.7,24.8,94.6,1000.7,0.00,0,0.0,////,0.0,0,0.0,////,23.9,0.0,12.3,3.521
2013/06/01,06:40:01,212,220,231,3.0,3.2,3.4,24.9,94.6,1000.8,0.00,0,0.0,////,0.0,0,0.0,////,24.1,0.0,12.3,3.521
2013/06/01,06:50:01,214,223,239,2.2,2.3,2.4,24.9,94.6,1000.9,0.00,0,0.0,////,0.0,0,0.0,////,24.3,0.0,12.3,3.521
2013/06/01,07:00:01,217,222,231,2.3,2.5,2.8,24.9,94.5,1001.0,0.00,0,0.0,////,0.0,0,0.0,////,24.1,0.0,12.3,3.520
2013/06/01,07:10:01,222,231,237,2.2,2.6,2.9,24.9,94.5,1001.1,0.00,0,0.0,////,0.0,0,0.0,////,24.3,0.0,12.3,3.521
2013/06/01,07:20:01,212,216,223,2.3,2.4,2.6,24.9,94.4,1001.2,0.00,0,0.0,////,0.0,0,0.0,////,24.6,0.0,12.3,3.521
2013/06/01,07:30:01,202,204,206,1.6,2.4,3.0,25.0,94.4,1001.3,0.00,0,0.0,////,0.0,0,0.0,////,24.8,0.0,12.3,3.520
2013/06/01,07:40:01,215,227,241,1.6,1.8,2.0,25.0,94.2,1001.4,0.00,0,0.0,////,0.0,0,0.0,////,25.1,0.0,12.3,3.521
2013/06/01,07:50:01,235,241,247,2.4,3.1,3.8,25.1,93.9,1001.5,0.00,0,0.0,////,0.0,0,0.0,////,25.5,0.0,12.3,3.521
2013/06/01,08:00:01,225,235,246,1.3,1.6,1.8,25.2,93.8,1001.5,0.00,0,0.0,////,0.0,0,0.0,////,25.5,0.0,12.3,3.521
2013/06/01,08:10:01,243,246,249,2.2,2.6,2.8,25.2,93.4,1001.6,0.00,0,0.0,////,0.0,0,0.0,////,25.8,0.0,12.3,3.521
2013/06/01,08:20:01,220,222,224,2.0,2.2,2.6,25.2,93.0,1001.6,0.00,0,0.0,////,0.0,0,0.0,////,25.6,0.0,12.3,3.523
2013/06/01,08:30:01,232,239,244,3.0,3.2,3.3,25.3,93.0,1001.6,0.00,0,0.0,////,0.0,0,0.0,////,25.6,0.0,12.3,3.521
2013/06/01,08:40:01,240,241,243,1.8,1.9,2.1,25.3,92.6,1001.5,0.00,0,0.0,////,0.0,0,0.0,////,25.8,0.0,12.3,3.520
2013/06/01,08:50:01,227,232,239,2.0,2.2,2.5,25.4,92.2,1001.6,0.00,0,0.0,////,0.0,0,0.0,////,26.2,0.0,12.3,3.520
2013/06/01,09:00:01,221,229,239,2.3,2.6,2.8,25.6,91.5,1001.5,0.00,0,0.0,////,0.0,0,0.0,////,26.7,0.0,12.3,3.520
2013/06/01,09:10:01,220,222,227,1.6,2.0,2.2,25.7,90.5,1001.5,0.00,0,0.0,////,0.0,0,0.0,////,26.8,0.0,12.3,3.521
2013/06/01,09:20:01,212,219,224,2.6,2.9,3.2,26.0,89.5,1001.5,0.00,0,0.0,////,0.0,0,0.0,////,28.1,0.0,12.3,3.521
2013/06/01,09:30:01,217,229,238,2.4,2.7,2.9,26.1,87.9,1001.5,0.00,0,0.0,////,0.0,0,0.0,////,28.4,0.0,12.3,3.521
2013/06/01,09:40:01,221,222,223,3.0,3.6,4.0,26.4,86.8,1001.4,0.00,0,0.0,////,0.0,0,0.0,////,28.7,0.0,12.3,3.521
2013/06/01,09:50:01,215,222,232,2.7,2.9,3.2,26.8,85.0,1001.3,0.00,0,0.0,////,0.0,0,0.0,////,29.8,0.0,12.2,3.520
2013/06/01,10:00:01,229,238,249,1.9,2.4,2.9,26.9,84.5,1001.4,0.00,0,0.0,////,0.0,0,0.0,////,29.4,0.0,12.3,3.521
2013/06/01,10:10:01,217,223,231,2.6,2.9,3.2,27.0,83.3,1001.5,0.00,0,0.0,////,0.0,0,0.0,////,29.6,0.0,12.3,3.521
2013/06/01,10:20:01,218,228,236,1.7,2.2,2.6,26.8,84.2,1001.5,0.00,0,0.0,////,0.0,0,0.0,////,28.7,0.0,12.3,3.521
2013/06/01,10:30:01,228,231,236,3.0,3.4,4.1,27.1,83.8,1001.4,0.00,0,0.0,////,0.0,0,0.0,////,29.6,0.0,12.3,3.521
2013/06/01,10:40:01,210,228,245,2.7,2.8,2.9,27.3,82.9,1001.5,0.00,0,0.0,////,0.0,0,0.0,////,30.0,0.0,12.3,3.520
2013/06/01,10:50:01,197,210,224,1.5,2.0,2.5,27.3,82.5,1001.4,0.00,0,0.0,////,0.0,0,0.0,////,30.1,0.0,12.3,3.521
2013/06/01,11:00:01,228,233,237,3.5,3.7,3.9,27.5,81.6,1001.4,0.00,0,0.0,////,0.0,0,0.0,////,30.3,0.0,12.3,3.520
2013/06/01,11:10:01,227,234,240,1.4,1.6,1.8,27.4,81.9,1001.3,0.00,0,0.0,////,0.0,0,0.0,////,30.1,0.0,12.3,3.520
2013/06/01,11:20:01,207,219,238,2.2,2.6,3.0,27.3,81.7,1001.3,0.00,0,0.0,////,0.0,0,0.0,////,30.0,0.0,12.3,3.521
2013/06/01,11:30:01,216,225,229,1.9,2.1,2.2,27.6,81.5,1001.3,0.00,0,0.0,////,0.0,0,0.0,////,30.1,0.0,12.3,3.519
2013/06/01,11:40:01,235,239,244,3.5,3.9,4.3,27.5,80.2,1001.3,0.00,0,0.0,////,0.0,0,0.0,////,30.1,0.0,12.3,3.521
2013/06/01,11:50:01,208,221,232,2.7,3.5,4.4,27.2,81.9,1001.2,0.00,0,0.0,////,0.0,0,0.0,////,28.9,0.0,12.3,3.520
2013/06/01,12:00:01,231,243,255,2.4,3.0,3.3,27.2,82.8,1001.2,0.00,0,0.0,////,0.0,0,0.0,////,29.3,0.0,12.3,3.520
2013/06/01,12:10:01,199,202,208,2.1,2.2,2.4,27.4,81.8,1001.1,0.00,0,0.0,////,0.0,0,0.0,////,29.4,0.0,12.3,3.520
2013/06/01,12:20:01,209,214,224,3.5,3.5,3.6,27.5,81.3,1001.1,0.00,0,0.0,////,0.0,0,0.0,////,30.0,0.0,12.3,3.521
2013/06/01,12:30:01,215,219,226,3.3,3.8,4.3,27.5,80.7,1001.1,0.00,0,0.0,////,0.0,0,0.0,////,30.1,0.0,12.3,3.520
2013/06/01,12:40:01,214,222,234,1.7,2.1,2.6,27.7,78.9,1001.0,0.00,0,0.0,////,0.0,0,0.0,////,30.5,0.0,12.3,3.523
2013/06/01,12:50:01,223,233,239,1.8,1.9,2.0,27.9,78.7,1000.9,0.00,0,0.0,////,0.0,0,0.0,////,30.5,0.0,12.3,3.520
2013/06/01,13:00:01,223,226,231,2.6,2.8,2.9,28.2,77.7,1000.8,0.00,0,0.0,////,0.0,0,0.0,////,31.5,0.0,12.3,3.520
2013/06/01,13:10:01,244,246,247,3.0,3.3,3.5,28.2,77.2,1000.6,0.00,0,0.0,////,0.0,0,0.0,////,31.7,0.0,12.3,3.520
2013/06/01,13:20:01,231,236,241,2.9,3.2,3.5,28.1,77.6,1000.6,0.00,0,0.0,////,0.0,0,0.0,////,31.2,0.0,12.3,3.521
2013/06/01,13:30:01,228,242,258,2.7,2.9,3.1,27.9,79.5,1000.4,0.00,0,0.0,////,0.0,0,0.0,////,30.5,0.0,12.3,3.520
2013/06/01,13:40:01,220,227,231,3.5,3.7,3.8,28.1,79.7,1000.3,0.00,0,0.0,////,0.0,0,0.0,////,31.0,0.0,12.3,3.521
2013/06/01,13:50:01,241,264,282,1.3,1.4,1.5,28.2,80.2,1000.2,0.00,0,0.0,////,0.0,0,0.0,////,31.2,0.0,12.3,3.520
2013/06/01,14:00:01,240,243,247,2.7,3.1,3.3,28.3,79.9,1000.1,0.00,0,0.0,////,0.0,0,0.0,////,31.7,0.0,12.3,3.521
2013/06/01,14:10:01,227,229,232,2.3,2.6,2.8,28.3,80.6,999.9,0.00,0,0.0,////,0.0,0,0.0,////,31.5,0.0,12.3,3.521
2013/06/01,14:20:01,213,219,223,2.8,3.3,3.7,28.5,80.7,999.9,0.00,0,0.0,////,0.0,0,0.0,////,31.8,0.0,12.3,3.521
2013/06/01,14:30:01,252,263,278,2.3,2.6,3.3,28.8,80.6,999.8,0.00,0,0.0,////,0.0,0,0.0,////,32.2,0.0,12.3,3.521
2013/06/01,14:40:01,242,247,255,4.2,4.4,4.6,28.3,81.5,999.7,0.00,0,0.0,////,0.0,0,0.0,////,31.2,0.0,12.3,3.521
2013/06/01,14:50:01,256,259,261,2.8,3.0,3.3,28.3,81.9,999.8,0.00,0,0.0,////,0.0,0,0.0,////,30.8,0.0,12.3,3.520
2013/06/01,15:00:01,249,260,266,3.9,4.4,4.7,28.5,81.7,999.7,0.00,0,0.0,////,0.0,0,0.0,////,31.2,0.0,12.3,3.521
2013/06/01,15:10:01,230,243,251,2.5,2.8,3.2,28.5,81.7,999.7,0.00,0,0.0,////,0.0,0,0.0,////,31.0,0.0,12.3,3.521
2013/06/01,15:20:01,227,241,248,1.4,1.6,1.9,28.8,80.7,999.6,0.00,0,0.0,////,0.0,0,0.0,////,31.8,0.0,12.3,3.521
2013/06/01,15:30:01,228,234,240,3.4,4.0,4.4,28.6,80.8,999.6,0.00,0,0.0,////,0.0,0,0.0,////,31.2,0.0,12.4,3.521
2013/06/01,15:40:01,213,216,221,2.3,2.7,3.2,28.6,80.8,999.5,0.00,0,0.0,////,0.0,0,0.0,////,31.0,0.0,12.3,3.520
2013/06/01,15:50:01,252,254,255,2.7,3.8,5.1,28.4,81.4,999.5,0.00,0,0.0,////,0.0,0,0.0,////,30.1,0.0,12.3,3.521
2013/06/01,16:00:01,231,242,248,2.7,3.3,3.6,27.7,83.9,999.5,0.00,0,0.0,////,0.0,0,0.0,////,28.9,0.0,12.3,3.520
2013/06/01,16:10:01,219,233,248,2.8,3.0,3.4,27.6,85.0,999.3,0.00,0,0.0,////,0.0,0,0.0,////,28.4,0.0,12.3,3.521
2013/06/01,16:20:01,242,253,262,2.1,2.8,3.4,28.1,83.6,999.2,0.00,0,0.0,////,0.0,0,0.0,////,29.8,0.0,12.3,3.520
2013/06/01,16:30:01,225,240,251,2.8,3.8,5.0,28.2,82.9,999.1,0.00,0,0.0,////,0.0,0,0.0,////,29.8,0.0,12.3,3.520
2013/06/01,16:40:01,227,241,253,5.3,5.7,6.1,27.8,83.6,999.1,0.00,0,0.0,////,0.0,0,0.0,////,28.9,0.0,12.3,3.521
2013/06/01,16:50:01,206,216,223,1.8,2.4,3.0,27.5,85.0,999.1,0.00,0,0.0,////,0.0,0,0.0,////,28.1,0.0,12.3,3.521
2013/06/01,17:00:01,216,233,250,3.3,3.8,4.1,27.4,85.9,999.2,0.00,0,0.0,////,0.0,0,0.0,////,28.1,0.0,12.4,3.521
2013/06/01,17:10:01,237,241,244,5.2,5.8,6.3,27.3,86.0,999.1,0.00,0,0.0,////,0.0,0,0.0,////,27.7,0.0,12.3,3.521
2013/06/01,17:20:01,229,252,266,3.4,3.8,4.4,27.1,86.9,999.1,0.00,0,0.0,////,0.0,0,0.0,////,27.2,0.0,12.3,3.523
2013/06/01,17:30:01,214,230,242,3.5,4.5,5.3,27.4,86.3,999.1,0.00,0,0.0,////,0.0,0,0.0,////,27.7,0.0,12.3,3.521
2013/06/01,17:40:01,221,233,256,2.3,3.1,3.9,27.1,86.9,999.0,0.00,0,0.0,////,0.0,0,0.0,////,27.0,0.0,12.3,3.521
2013/06/01,17:50:01,235,241,244,3.8,3.9,4.0,26.9,87.5,999.0,0.00,0,0.0,////,0.0,0,0.0,////,26.8,0.0,12.3,3.521
2013/06/01,18:00:01,196,208,224,3.3,3.8,4.1,27.0,87.9,999.0,0.00,0,0.0,////,0.0,0,0.0,////,27.2,0.0,12.2,3.521
2013/06/01,18:10:01,212,232,258,1.3,1.4,1.5,27.1,86.8,999.0,0.00,0,0.0,////,0.0,0,0.0,////,27.4,0.0,12.3,3.521
2013/06/01,18:20:01,215,223,232,2.9,3.1,3.4,27.1,86.5,999.0,0.00,0,0.0,////,0.0,0,0.0,////,27.4,0.0,12.3,3.524
2013/06/01,18:30:01,229,236,249,3.0,3.3,3.9,27.0,86.2,999.1,0.00,0,0.0,////,0.0,0,0.0,////,26.8,0.0,12.3,3.521
2013/06/01,18:40:01,214,224,233,3.1,3.9,5.1,26.9,86.9,999.1,0.00,0,0.0,////,0.0,0,0.0,////,26.8,0.0,12.3,3.521
2013/06/01,18:50:01,206,228,253,2.4,2.9,3.3,26.7,88.0,999.2,0.00,0,0.0,////,0.0,0,0.0,////,26.2,0.0,12.3,3.521
2013/06/01,19:00:01,219,225,229,2.7,3.0,3.2,26.5,89.1,999.2,0.00,0,0.0,////,0.0,0,0.0,////,25.6,0.0,12.3,3.521
2013/06/01,19:10:01,215,231,244,2.6,3.1,3.6,26.4,89.8,999.3,0.00,0,0.0,////,0.0,0,0.0,////,25.6,0.0,12.3,3.521
2013/06/01,19:20:01,201,209,221,3.5,3.9,4.3,26.4,90.0,999.4,0.00,0,0.0,////,0.0,0,0.0,////,25.3,0.0,12.3,3.521
2013/06/01,19:30:01,237,243,252,3.4,3.9,4.5,26.4,90.0,999.5,0.00,0,0.0,////,0.0,0,0.0,////,25.5,0.0,12.3,3.521
2013/06/01,19:40:01,232,245,254,2.4,2.7,2.8,26.3,90.0,999.6,0.00,0,0.0,////,0.0,0,0.0,////,25.3,0.0,12.3,3.521
2013/06/01,19:50:01,239,242,248,3.2,3.4,3.5,26.3,90.2,999.6,0.00,0,0.0,////,0.0,0,0.0,////,25.3,0.0,12.3,3.521
2013/06/01,20:00:01,229,236,242,3.2,3.5,3.8,26.2,90.4,999.5,0.00,0,0.0,////,0.0,0,0.0,////,25.1,0.0,12.3,3.519
2013/06/01,20:10:01,235,239,244,2.3,2.8,3.8,26.2,90.5,999.6,0.00,0,0.0,////,0.0,0,0.0,////,25.8,0.0,12.3,3.521
2013/06/01,20:20:01,217,224,229,3.2,3.8,4.9,26.1,90.7,999.5,0.00,0,0.0,////,0.0,0,0.0,////,25.1,0.0,12.3,3.524
2013/06/01,20:30:01,220,222,225,3.2,3.9,4.4,26.1,90.9,999.6,0.00,0,0.0,////,0.0,0,0.0,////,25.1,0.0,12.3,3.521
2013/06/01,20:40:01,238,244,251,3.0,3.3,3.8,26.0,91.1,999.6,0.00,0,0.0,////,0.0,0,0.0,////,25.1,0.0,12.3,3.520
2013/06/01,20:50:01,218,224,232,2.2,2.4,2.6,26.0,91.2,999.5,0.00,0,0.0,////,0.0,0,0.0,////,25.0,0.0,12.3,3.521
2013/06/01,21:00:01,222,231,242,3.7,3.8,3.9,26.0,91.2,999.7,0.00,0,0.0,////,0.0,0,0.0,////,25.1,0.0,12.3,3.521
2013/06/01,21:10:01,203,224,240,1.2,1.9,2.3,26.0,91.3,999.9,0.00,0,0.0,////,0.0,0,0.0,////,24.8,0.0,12.3,3.520
2013/06/01,21:20:01,232,245,267,1.8,2.6,3.1,26.0,91.3,999.9,0.00,0,0.0,////,0.0,0,0.0,////,25.5,0.0,12.3,3.523
2013/06/01,21:30:01,210,229,246,1.7,1.8,1.9,26.0,91.3,999.8,0.00,0,0.0,////,0.0,0,0.0,////,25.0,0.0,12.2,3.520
2013/06/01,21:40:01,198,213,232,2.6,3.3,3.8,26.0,91.2,999.9,0.00,0,0.0,////,0.0,0,0.0,////,25.0,0.0,12.3,3.521
2013/06/01,21:50:01,216,228,235,3.2,3.9,4.3,26.0,91.2,1000.0,0.00,0,0.0,////,0.0,0,0.0,////,24.8,0.0,12.3,3.520
2013/06/01,22:00:01,217,220,227,4.0,4.3,4.5,25.9,91.2,1000.0,0.00,0,0.0,////,0.0,0,0.0,////,25.0,0.0,12.3,3.521
2013/06/01,22:10:01,229,232,234,3.6,4.0,4.3,25.9,91.3,1000.0,0.00,0,0.0,////,0.0,0,0.0,////,24.8,0.0,12.3,3.521
2013/06/01,22:20:01,194,200,203,3.4,3.9,4.1,25.9,91.4,999.9,0.00,0,0.0,////,0.0,0,0.0,////,25.0,0.0,12.3,3.520
2013/06/01,22:30:01,200,212,221,3.4,4.0,4.4,25.9,91.4,1000.0,0.00,0,0.0,////,0.0,0,0.0,////,25.0,0.0,12.3,3.521
2013/06/01,22:40:01,198,203,206,3.2,3.4,3.6,25.9,91.5,999.8,0.00,0,0.0,////,0.0,0,0.0,////,25.0,0.0,12.2,3.523
2013/06/01,22:50:01,197,210,216,1.8,2.7,3.5,25.9,91.4,999.8,0.00,0,0.0,////,0.0,0,0.0,////,25.5,0.0,12.3,3.521
2013/06/01,23:00:01,210,227,248,2.5,2.8,3.0,25.9,91.4,999.7,0.00,0,0.0,////,0.0,0,0.0,////,25.1,0.0,12.3,3.521
2013/06/01,23:10:01,192,199,204,3.0,3.3,3.6,25.8,91.7,999.7,0.00,0,0.0,////,0.0,0,0.0,////,24.8,0.0,12.3,3.521
2013/06/01,23:20:01,229,233,240,1.5,1.6,1.7,25.8,91.7,999.6,0.00,0,0.0,////,0.0,0,0.0,////,24.8,0.0,12.3,3.521
2013/06/01,23:30:01,206,221,243,2.0,2.6,3.4,25.8,91.7,999.4,0.00,0,0.0,////,0.0,0,0.0,////,24.8,0.0,12.3,3.521
2013/06/01,23:40:01,203,207,212,4.3,4.6,5.1,25.8,91.5,999.3,0.00,0,0.0,////,0.0,0,0.0,////,24.8,0.0,12.3,3.521
2013/06/01,23:50:01,187,193,196,4.6,5.5,6.0,25.8,91.4,999.2,0.00,0,0.0,////,0.0,0,0.0,////,24.8,0.0,12.3,3.521
2013/06/02,00:00:01,222,232,238,3.7,4.0,4.5,25.8,91.2,999.2,0.00,0,0.0,////,0.0,0,0.0,////,24.8,0.0,12.3,3.520
2013/06/02,00:10:01,227,235,239,1.4,1.9,2.4,25.8,91.0,999.1,0.00,0,0.0,////,0.0,0,0.0,////,24.8,0.0,12.3,3.521
2013/06/02,00:20:01,215,229,248,1.5,2.3,3.2,25.8,90.9,999.0,0.00,0,0.0,////,0.0,0,0.0,////,24.8,0.0,12.3,3.521
2013/06/02,00:30:01,157,202,255,0.8,0.9,1.0,25.8,90.9,998.9,0.00,0,0.0,////,0.0,0,0.0,////,24.8,0.0,12.3,3.520
2013/06/02,00:40:01,208,213,222,1.6,1.8,2.2,25.7,91.1,998.9,0.00,0,0.0,////,0.0,0,0.0,////,24.8,0.0,12.3,3.521
2013/06/02,00:50:01,211,216,225,2.4,2.6,2.9,25.7,91.3,998.8,0.00,0,0.0,////,0.0,0,0.0,////,24.6,0.0,12.3,3.521
2013/06/02,01:00:01,221,224,229,2.4,2.5,2.7,25.7,91.5,998.8,0.00,0,0.0,////,0.0,0,0.0,////,24.6,0.0,12.3,3.521
2013/06/02,01:10:01,238,245,251,3.3,3.4,3.6,25.7,91.7,998.6,0.00,0,0.0,////,0.0,0,0.0,////,24.6,0.0,12.3,3.523
2013/06/02,01:20:01,205,220,232,2.3,2.5,2.6,25.6,91.9,998.7,0.00,0,0.0,////,0.0,0,0.0,////,24.4,0.0,12.3,3.521
2013/06/02,01:30:01,208,219,233,2.0,2.9,3.7,25.7,92.1,998.7,0.00,0,0.0,////,0.0,0,0.0,////,24.6,0.0,12.3,3.521
2013/06/02,01:40:01,214,219,225,3.2,3.6,3.9,25.7,92.2,998.6,0.00,0,0.0,////,0.0,0,0.0,////,24.6,0.0,12.3,3.523
2013/06/02,01:50:01,207,221,231,1.6,2.2,3.1,25.7,92.3,998.6,0.00,0,0.0,////,0.0,0,0.0,////,24.6,0.0,12.3,3.521
2013/06/02,02:00:01,223,242,267,1.9,2.4,2.8,25.7,92.3,998.6,0.00,0,0.0,////,0.0,0,0.0,////,24.6,0.0,12.3,3.523
2013/06/02,02:10:01,232,236,238,2.8,3.1,3.4,25.6,92.5,998.5,0.00,0,0.0,////,0.0,0,0.0,////,24.6,0.0,12.3,3.521
2013/06/02,02:20:01,215,231,240,2.8,3.7,5.1,25.6,92.5,998.5,0.00,0,0.0,////,0.0,0,0.0,////,24.3,0.0,12.3,3.521
2013/06/02,02:30:01,242,245,249,3.5,3.7,3.8,25.5,92.5,998.5,0.00,0,0.0,////,0.0,0,0.0,////,24.4,0.0,12.3,3.521
2013/06/02,02:40:01,217,228,238,3.4,4.0,4.6,25.5,92.4,998.4,0.00,0,0.0,////,0.0,0,0.0,////,24.6,0.0,12.3,3.521
2013/06/02,02:50:01,210,218,233,1.8,3.3,4.6,25.5,92.3,998.2,0.00,0,0.0,////,0.0,0,0.0,////,24.6,0.0,12.3,3.521
2013/06/02,03:00:01,214,216,218,2.6,2.9,3.1,25.5,92.3,998.1,0.00,0,0.0,////,0.0,0,0.0,////,24.4,0.0,12.3,3.523
2013/06/02,03:10:01,240,248,263,2.6,3.0,3.4,25.5,92.4,998.1,0.00,0,0.0,////,0.0,0,0.0,////,24.3,0.0,12.3,3.521
2013/06/02,03:20:01,222,226,230,3.8,4.0,4.3,25.6,92.5,998.0,0.00,0,0.0,////,0.0,0,0.0,////,24.6,0.0,12.3,3.521
2013/06/02,03:30:01,227,232,235,2.9,3.1,3.5,25.6,92.3,998.0,0.00,0,0.0,////,0.0,0,0.0,////,24.6,0.0,12.4,3.521
2013/06/02,03:40:01,215,218,220,3.3,3.6,3.9,25.5,92.3,997.9,0.00,0,0.0,////,0.0,0,0.0,////,24.6,0.0,12.3,3.521
2013/06/02,03:50:01,232,237,241,3.0,3.6,4.1,25.5,92.2,997.9,0.00,0,0.0,////,0.0,0,0.0,////,24.4,0.0,12.3,3.521
2013/06/02,04:00:01,214,229,238,3.1,3.4,3.7,25.6,92.2,997.9,0.00,0,0.0,////,0.0,0,0.0,////,24.6,0.0,12.3,3.521
2013/06/02,04:10:01,186,198,211,3.5,3.7,3.9,25.5,92.3,997.9,0.00,0,0.0,////,0.0,0,0.0,////,24.4,0.0,12.3,3.523
2013/06/02,04:20:01,221,230,246,1.5,2.1,2.8,25.6,92.5,998.0,0.00,0,0.0,////,0.0,0,0.0,////,24.6,0.0,12.3,3.520
2013/06/02,04:30:01,213,221,226,1.5,2.2,2.9,25.6,92.5,998.0,0.00,0,0.0,////,0.0,0,0.0,////,24.4,0.0,12.3,3.521
2013/06/02,04:40:01,193,205,219,1.5,1.7,1.9,25.6,92.7,998.1,0.00,0,0.0,////,0.0,0,0.0,////,24.6,0.0,12.3,3.521
2013/06/02,04:50:01,228,237,250,3.6,4.1,4.9,25.6,92.8,998.1,0.00,0,0.0,////,0.0,0,0.0,////,24.4,0.0,12.3,3.521
2013/06/02,05:00:01,226,232,241,3.8,4.2,4.8,25.6,92.8,998.2,0.00,0,0.0,////,0.0,0,0.0,////,24.6,0.0,12.3,3.523
2013/06/02,05:10:01,233,245,255,3.5,4.0,4.8,25.5,92.7,998.4,0.00,0,0.0,////,0.0,0,0.0,////,24.6,0.0,12.3,3.520
2013/06/02,05:20:01,221,234,244,1.1,1.9,2.7,25.5,92.8,998.5,0.00,0,0.0,////,0.0,0,0.0,////,24.6,0.0,12.3,3.521
2013/06/02,05:30:01,218,236,252,2.8,3.0,3.1,25.5,92.8,998.5,0.00,0,0.0,////,0.0,0,0.0,////,24.6,0.0,12.3,3.521
2013/06/02,05:40:01,231,240,248,2.0,2.6,3.0,25.4,92.7,998.4,0.00,0,0.0,////,0.0,0,0.0,////,24.3,0.0,12.3,3.521
2013/06/02,05:50:01,226,240,250,4.2,4.8,5.4,25.5,92.7,998.5,0.00,0,0.0,////,0.0,0,0.0,////,24.6,0.0,12.3,3.521
2013/06/02,06:00:01,200,217,236,3.7,4.4,5.0,25.6,92.5,998.5,0.00,0,0.0,////,0.0,0,0.0,////,25.0,0.0,12.3,3.521
2013/06/02,06:10:01,205,211,217,4.6,5.6,6.3,25.7,92.4,998.6,0.00,0,0.0,////,0.0,0,0.0,////,25.3,0.0,12.3,3.520
2013/06/02,06:20:01,203,221,239,2.5,3.4,4.4,25.8,92.1,998.7,0.00,0,0.0,////,0.0,0,0.0,////,26.5,0.0,12.3,3.521
2013/06/02,06:30:01,213,215,217,4.5,4.9,5.1,25.9,91.6,998.8,0.00,0,0.0,////,0.0,0,0.0,////,26.3,0.0,12.3,3.521
2013/06/02,06:40:01,221,223,225,3.3,3.5,3.8,26.0,91.1,999.0,0.00,0,0.0,////,0.0,0,0.0,////,26.7,0.0,12.3,3.521
2013/06/02,06:50:01,225,234,244,3.0,3.2,3.3,26.0,90.6,998.9,0.00,0,0.0,////,0.0,0,0.0,////,26.8,0.0,12.3,3.521
2013/06/02,07:00:01,215,223,228,3.7,4.3,5.1,26.0,90.5,998.9,0.00,0,0.0,////,0.0,0,0.0,////,26.3,0.0,12.3,3.523
2013/06/02,07:10:01,229,234,238,2.6,3.0,3.6,25.9,90.4,999.0,0.00,0,0.0,////,0.0,0,0.0,////,26.0,0.0,12.3,3.521
2013/06/02,07:20:01,227,228,229,4.5,4.7,5.2,26.0,90.0,999.0,0.00,0,0.0,////,0.0,0,0.0,////,26.0,0.0,12.3,3.521
2013/06/02,07:30:01,219,232,239,5.3,5.3,5.5,26.0,89.1,999.0,0.00,0,0.0,////,0.0,0,0.0,////,26.0,0.0,12.3,3.523
2013/06/02,07:40:01,241,246,252,6.8,7.0,7.2,26.2,87.9,999.0,0.00,0,0.0,////,0.0,0,0.0,////,26.2,0.0,12.3,3.521
2013/06/02,07:50:01,241,243,247,2.8,3.9,4.7,26.3,87.1,999.0,0.00,0,0.0,////,0.0,0,0.0,////,26.5,0.0,12.3,3.520
2013/06/02,08:00:01,217,243,259,2.7,3.5,4.0,26.5,86.6,998.9,0.00,0,0.0,////,0.0,0,0.0,////,27.0,0.0,12.3,3.521
2013/06/02,08:10:01,227,238,245,4.1,4.5,5.2,26.6,86.1,999.0,0.00,0,0.0,////,0.0,0,0.0,////,27.4,0.0,12.3,3.521
2013/06/02,08:20:01,225,236,245,3.8,4.9,5.9,26.7,85.8,998.9,0.00,0,0.0,////,0.0,0,0.0,////,27.4,0.0,12.3,3.521
2013/06/02,08:30:01,215,224,234,4.1,4.7,5.5,26.8,85.3,998.8,0.00,0,0.0,////,0.0,0,0.0,////,27.5,0.0,12.3,3.521
2013/06/02,08:40:01,227,236,246,5.2,5.5,5.9,27.0,84.3,998.9,0.00,0,0.0,////,0.0,0,0.0,////,28.2,0.0,12.3,3.521
2013/06/02,08:50:01,227,228,228,4.1,4.4,4.8,27.0,84.1,999.0,0.00,0,0.0,////,0.0,0,0.0,////,28.2,0.0,12.3,3.521
2013/06/02,09:00:01,232,241,248,3.8,4.2,4.5,27.0,83.9,998.9,0.00,0,0.0,////,0.0,0,0.0,////,28.1,0.0,12.3,3.521
2013/06/02,09:10:01,199,235,276,1.0,2.2,3.6,27.1,83.6,998.9,0.00,0,0.0,////,0.0,0,0.0,////,28.6,0.0,12.3,3.520
2013/06/02,09:20:01,236,241,249,3.7,4.5,4.9,27.1,83.6,998.8,0.00,0,0.0,////,0.0,0,0.0,////,28.2,0.0,12.3,3.520
2013/06/02,09:30:01,239,243,246,3.6,4.1,4.4,27.2,84.1,998.9,0.00,0,0.0,////,0.0,0,0.0,////,28.6,0.0,12.3,3.520
2013/06/02,09:40:01,226,236,244,3.1,3.6,3.9,27.2,83.4,998.9,0.00,0,0.0,////,0.0,0,0.0,////,28.6,0.0,12.3,3.521
2013/06/02,09:50:01,213,230,242,2.0,2.3,2.7,27.3,83.2,998.8,0.00,0,0.0,////,0.0,0,0.0,////,28.7,0.0,12.3,3.520
2013/06/02,10:00:01,216,232,243,1.9,2.2,2.7,27.3,83.5,998.6,0.00,0,0.0,////,0.0,0,0.0,////,28.7,0.0,12.3,3.520
2013/06/02,10:10:01,234,238,241,2.1,2.5,2.7,27.2,84.2,998.5,0.00,0,0.0,////,0.0,0,0.0,////,28.4,0.0,12.3,3.520
2013/06/02,10:20:01,216,222,233,2.4,2.7,2.9,27.3,84.4,998.6,0.00,0,0.0,////,0.0,0,0.0,////,28.7,0.0,12.3,3.521
2013/06/02,10:30:01,191,207,222,2.5,2.9,3.6,27.4,84.6,998.6,0.00,0,0.0,////,0.0,0,0.0,////,29.3,0.0,12.3,3.520
2013/06/02,10:40:01,201,212,228,2.1,2.6,3.3,27.9,82.9,998.5,0.00,0,0.0,////,0.0,0,0.0,////,30.6,0.0,12.3,3.520
2013/06/02,10:50:01,228,232,239,4.0,4.5,4.9,27.9,82.3,998.6,0.00,0,0.0,////,0.0,0,0.0,////,30.5,0.0,12.3,3.520